• In Uzbekistan
  • List of Countries
  • For 7 days
  • Water Temperature
  • Satellite Maps
  • Weather Map
  • Weather Widgets
  • user-avatar
    Login

    Hourly Weather Kinshasa

    Today, 19 November, Sunday

    Time Temperature Precipitation Wind Pressure Humidity
    00:00 +23°C° 0.8 mm 1 mps 706 mmHg 93%
    01:00 +23°C° 0 mm 1 mps 706 mmHg 95%
    02:00 +21°C° 0.5 mm 0 mps 706 mmHg 94%
    03:00 +21°C° 0.5 mm 0 mps 706 mmHg 94%
    04:00 +21°C° 0.5 mm 0 mps 706 mmHg 93%
    05:00 +21°C° 0.1 mm 0 mps 706 mmHg 94%
    06:00 +23°C° 0.1 mm 1 mps 707 mmHg 94%
    07:00 +23°C° 0 mm 1 mps 707 mmHg 94%
    08:00 +24°C° 0.6 mm 1 mps 707 mmHg 92%
    09:00 +25°C° 0.6 mm 1 mps 708 mmHg 90%
    10:00 +25°C° 0.6 mm 2 mps 708 mmHg 88%
    11:00 +26°C° 1.6 mm 2 mps 708 mmHg 87%
    12:00 +26°C° 1.6 mm 1 mps 707 mmHg 86%
    13:00 +27°C° 0 mm 1 mps 707 mmHg 83%
    14:00 +27°C° 1.2 mm 1 mps 707 mmHg 85%
    15:00 +26°C° 1.2 mm 1 mps 706 mmHg 86%
    16:00 +26°C° 1.2 mm 1 mps 706 mmHg 88%
    17:00 +25°C° 0.1 mm 1 mps 706 mmHg 91%
    18:00 +24°C° 0.1 mm 1 mps 706 mmHg 93%
    19:00 +23°C° 0.1 mm 1 mps 707 mmHg 96%
    20:00 +23°C° 0 mm 1 mps 707 mmHg 96%
    21:00 +23°C° 0 mm 1 mps 707 mmHg 97%
    22:00 +22°C° 0 mm 1 mps 707 mmHg 97%
    23:00 +22°C° 0 mm 1 mps 707 mmHg 97%

    Tomorrow, 20 November, Monday

    Time Temperature Precipitation Wind Pressure Humidity
    00:00 +22°C° 0 mm 1 mps 707 mmHg 98%
    01:00 +21°C° 0 mm 1 mps 707 mmHg 98%
    02:00 +21°C° 0 mm 1 mps 707 mmHg 98%
    03:00 +19°C° 0 mm 0 mps 707 mmHg 98%
    04:00 +19°C° 0 mm 0 mps 707 mmHg 98%
    05:00 +19°C° 0.1 mm 0 mps 707 mmHg 97%
    06:00 +20°C° 0.1 mm 0 mps 708 mmHg 96%
    07:00 +22°C° 0.1 mm 1 mps 708 mmHg 95%
    08:00 +22°C° 0 mm 0 mps 708 mmHg 86%
    09:00 +25°C° 0 mm 0 mps 708 mmHg 78%
    10:00 +27°C° 0 mm 0 mps 709 mmHg 69%
    11:00 +28°C° 0 mm 0 mps 708 mmHg 63%
    12:00 +30°C° 0 mm 0 mps 707 mmHg 57%
    13:00 +31°C° 0 mm 0 mps 707 mmHg 52%
    14:00 +31°C° 0 mm 0 mps 706 mmHg 54%
    15:00 +30°C° 0 mm 0 mps 706 mmHg 56%
    16:00 +32°C° 0 mm 1 mps 705 mmHg 58%
    17:00 +30°C° 0 mm 1 mps 705 mmHg 64%
    18:00 +26°C° 0 mm 0 mps 705 mmHg 70%
    19:00 +24°C° 0 mm 0 mps 706 mmHg 77%
    20:00 +23°C° 0.2 mm 0 mps 706 mmHg 80%
    21:00 +25°C° 0.2 mm 1 mps 706 mmHg 83%
    22:00 +24°C° 0.2 mm 1 mps 707 mmHg 86%
    23:00 +24°C° 0.4 mm 1 mps 707 mmHg 88%

    Day after tomorrow, 21 November, Tuesday

    Time Temperature Precipitation Wind Pressure Humidity
    00:00 +23°C° 0.4 mm 1 mps 707 mmHg 91%
    01:00 +23°C° 0.4 mm 1 mps 706 mmHg 94%
    02:00 +21°C° 0 mm 0 mps 706 mmHg 93%
    03:00 +21°C° 0 mm 0 mps 706 mmHg 93%
    04:00 +21°C° 0 mm 0 mps 705 mmHg 93%
    05:00 +21°C° 0.1 mm 0 mps 706 mmHg 92%
    06:00 +21°C° 0.1 mm 0 mps 706 mmHg 92%
    07:00 +22°C° 0.1 mm 0 mps 707 mmHg 91%
    08:00 +24°C° 0.1 mm 0 mps 707 mmHg 83%
    09:00 +26°C° 0.1 mm 0 mps 708 mmHg 74%
    10:00 +30°C° 0.1 mm 1 mps 708 mmHg 66%
    11:00 +29°C° 1 mm 0 mps 707 mmHg 61%
    12:00 +31°C° 1 mm 0 mps 707 mmHg 57%
    13:00 +32°C° 1 mm 0 mps 706 mmHg 52%
    14:00 +31°C° 0.1 mm 0 mps 705 mmHg 54%
    15:00 +30°C° 0.1 mm 0 mps 705 mmHg 56%
    16:00 +32°C° 0.1 mm 1 mps 704 mmHg 58%
    17:00 +30°C° 0.3 mm 1 mps 704 mmHg 65%
    18:00 +28°C° 0.3 mm 1 mps 705 mmHg 72%
    19:00 +26°C° 0.3 mm 1 mps 705 mmHg 79%
    20:00 +25°C° 0.3 mm 1 mps 705 mmHg 82%
    21:00 +24°C° 0.3 mm 1 mps 706 mmHg 85%
    22:00 +24°C° 0.3 mm 1 mps 706 mmHg 87%
    23:00 +23°C° 0.2 mm 1 mps 706 mmHg 88%

    22 November, Wednesday

    Time Temperature Precipitation Wind Pressure Humidity
    00:00 +23°C° 0.2 mm 1 mps 706 mmHg 89%
    01:00 +21°C° 0.2 mm 0 mps 705 mmHg 90%
    02:00 +21°C° 0 mm 0 mps 705 mmHg 90%
    03:00 +20°C° 0 mm 0 mps 705 mmHg 90%
    04:00 +20°C° 0 mm 0 mps 705 mmHg 90%
    05:00 +21°C° 0 mm 0 mps 705 mmHg 89%
    06:00 +22°C° 0 mm 0 mps 706 mmHg 87%
    07:00 +22°C° 0 mm 0 mps 707 mmHg 86%
    08:00 +26°C° 0 mm 1 mps 707 mmHg 79%
    09:00 +28°C° 0 mm 1 mps 707 mmHg 72%
    10:00 +30°C° 0 mm 1 mps 707 mmHg 66%
    11:00 +32°C° 0.2 mm 1 mps 707 mmHg 59%
    12:00 +34°C° 0.2 mm 1 mps 706 mmHg 52%
    13:00 +33°C° 0.2 mm 0 mps 705 mmHg 45%
    14:00 +35°C° 0 mm 1 mps 705 mmHg 47%
    15:00 +34°C° 0 mm 1 mps 704 mmHg 49%
    16:00 +33°C° 0 mm 1 mps 704 mmHg 51%
    17:00 +31°C° 0 mm 1 mps 704 mmHg 58%
    18:00 +29°C° 0 mm 1 mps 705 mmHg 65%
    19:00 +27°C° 0 mm 1 mps 705 mmHg 72%
    20:00 +26°C° 0.4 mm 1 mps 705 mmHg 78%
    21:00 +25°C° 0.4 mm 1 mps 706 mmHg 84%
    22:00 +24°C° 0.4 mm 1 mps 706 mmHg 89%
    23:00 +24°C° 0.1 mm 1 mps 706 mmHg 91%

    23 November, Thursday

    Time Temperature Precipitation Wind Pressure Humidity
    00:00 +23°C° 0.1 mm 1 mps 705 mmHg 93%
    01:00 +23°C° 0.1 mm 1 mps 705 mmHg 95%
    02:00 +23°C° 0.2 mm 1 mps 705 mmHg 96%
    03:00 +23°C° 0.2 mm 1 mps 705 mmHg 96%
    04:00 +22°C° 0.2 mm 1 mps 705 mmHg 97%
    05:00 +23°C° 0 mm 1 mps 706 mmHg 96%
    06:00 +23°C° 0 mm 1 mps 706 mmHg 95%
    07:00 +24°C° 0 mm 2 mps 707 mmHg 93%
    08:00 +25°C° 0 mm 2 mps 707 mmHg 86%
    09:00 +27°C° 0 mm 2 mps 708 mmHg 78%
    10:00 +29°C° 0 mm 2 mps 708 mmHg 70%
    11:00 +30°C° 0.2 mm 2 mps 707 mmHg 67%
    12:00 +30°C° 0.2 mm 2 mps 706 mmHg 64%
    13:00 +31°C° 0.2 mm 2 mps 705 mmHg 61%
    14:00 +30°C° 0.9 mm 1 mps 705 mmHg 65%
    15:00 +30°C° 0.9 mm 1 mps 705 mmHg 68%
    16:00 +29°C° 0.9 mm 1 mps 705 mmHg 71%
    17:00 +28°C° 0.1 mm 1 mps 705 mmHg 77%
    18:00 +26°C° 0.1 mm 1 mps 705 mmHg 83%
    19:00 +25°C° 0.1 mm 1 mps 706 mmHg 89%
    20:00 +24°C° 0 mm 1 mps 706 mmHg 91%
    21:00 +24°C° 0 mm 1 mps 706 mmHg 93%
    22:00 +23°C° 0 mm 1 mps 706 mmHg 94%
    23:00 +23°C° 0 mm 1 mps 706 mmHg 95%

    24 November, Friday

    Time Temperature Precipitation Wind Pressure Humidity
    00:00 +23°C° 0 mm 1 mps 706 mmHg 96%
    01:00 +22°C° 0 mm 1 mps 706 mmHg 97%
    02:00 +22°C° 0 mm 1 mps 706 mmHg 97%
    03:00 +22°C° 0 mm 1 mps 706 mmHg 98%
    04:00 +21°C° 0 mm 1 mps 706 mmHg 98%
    05:00 +22°C° 0 mm 1 mps 706 mmHg 96%
    06:00 +22°C° 0 mm 1 mps 707 mmHg 95%
    07:00 +23°C° 0 mm 1 mps 707 mmHg 93%
    08:00 +25°C° 0 mm 1 mps 707 mmHg 84%
    09:00 +27°C° 0 mm 2 mps 708 mmHg 75%
    10:00 +29°C° 0 mm 2 mps 708 mmHg 67%
    11:00 +30°C° 0 mm 2 mps 707 mmHg 60%
    12:00 +31°C° 0 mm 2 mps 706 mmHg 53%
    13:00 +34°C° 0 mm 2 mps 706 mmHg 45%
    14:00 +32°C° 0 mm 1 mps 705 mmHg 46%
    15:00 +32°C° 0 mm 1 mps 705 mmHg 48%
    16:00 +32°C° 0 mm 1 mps 704 mmHg 49%
    17:00 +30°C° 0 mm 1 mps 705 mmHg 56%
    18:00 +27°C° 0 mm 1 mps 705 mmHg 64%
    19:00 +25°C° 0 mm 1 mps 705 mmHg 71%
    20:00 +25°C° 0 mm 1 mps 706 mmHg 73%
    21:00 +24°C° 0 mm 1 mps 706 mmHg 75%
    22:00 +23°C° 0 mm 1 mps 706 mmHg 76%
    23:00 +23°C° 0 mm 1 mps 706 mmHg 78%
    Show more